Dewpoint
-13 -14 -4 -0 1 -2 -2 -4 -8 -9 -4 -5 -5 -5 -4 -4 5 11 13 13 13 11 9 11 12 11 10 10 11 10 9 7 7 6 5 4 2 2 1 2 0 -4 -4 -2 2 8 8 9 10
-14 -7 -2 -1 0 1 0 -6 -7 -6 -7 -8 -7 -6 -5 3 8 12 12 7 7 6 8 11 13 10 11 11 12 12 10 8 7 8 6 3 2 1 0 -0 0 3 6 8 6 6 7 8 9
-14 -2 -0 -1 0 1 -1 -7 -8 -8 -8 -8 -7 -8 -2 7 6 10 4 0 1 7 6 9 13 11 10 12 12 13 12 11 10 9 6 3 2 0 -1 0 7 10 11 11 10 6 8 9 8
-10 -1 -1 -3 -2 -4 -4 -8 -9 -10 -8 -8 -5 -4 4 4 2 0 -1 1 -0 6 6 11 12 13 11 10 10 11 11 12 11 13 8 3 2 3 6 7 9 10 11 11 9 6 8 8 7
-7 -4 -3 -2 -3 -5 -7 -9 -11 -10 -10 -5 -4 -3 4 7 4 2 4 3 4 12 13 12 12 11 11 11 11 11 10 8 6 8 12 8 5 6 8 9 9 10 11 9 7 5 6 7 8
-4 -5 -2 -2 -4 -6 -9 -10 -9 -9 -9 -9 -7 -4 7 9 7 7 7 3 5 13 14 13 11 11 10 11 11 11 11 9 8 7 11 10 6 7 9 10 10 10 8 8 6 5 5 8 8
-3 -3 -2 -3 -4 -6 -9 -9 -7 -7 -7 -6 -5 -4 9 9 8 7 4 1 4 9 14 12 12 11 11 10 10 7 9 8 7 8 8 10 8 8 6 10 10 7 3 2 4 2 2 7 8
-4 -5 -3 -4 -4 -6 -9 -7 -7 -7 -6 -6 -6 -5 10 10 9 6 0 5 9 5 10 11 12 12 12 11 10 9 8 7 8 9 8 11 8 7 6 9 10 7 -1 3 2 0 -3 6 7
-4 -4 -3 -4 -5 -7 -10 -8 -8 -8 -7 -8 -8 -7 -4 9 8 3 5 9 11 9 9 10 13 13 13 12 10 10 8 9 9 9 9 10 10 11 11 10 9 5 -4 -3 -1 -2 -4 7 6
-5 -5 -5 -6 -7 -8 -9 -11 -8 -7 -6 -6 -7 1 6 7 5 6 7 9 10 10 10 11 12 13 13 13 11 10 10 9 9 9 11 10 10 10 11 11 8 3 -5 -6 -7 -7 -0 6 6
-5 -4 -7 -7 -8 -8 -8 -11 -11 -9 -7 -8 -4 3 3 4 6 7 8 8 10 9 10 11 11 13 12 13 12 11 11 9 7 10 11 10 9 12 11 8 3 -0 -2 -8 -10 -9 -2 5 6
-4 -7 -7 -8 -8 -9 -9 -10 -11 -10 -9 -9 -8 -1 2 6 6 6 7 7 9 9 10 11 11 12 12 12 12 11 11 9 8 9 11 10 10 11 8 6 -1 -6 -7 -10 -11 -12 -4 5 6
-5 -7 -8 -9 -10 -10 -11 -10 -10 -11 -11 -11 -11 -7 -2 1 4 5 7 7 9 10 10 11 11 12 12 12 12 11 11 10 9 8 11 9 10 8 6 6 -4 -9 -11 -11 -11 -9 -1 5 6
-5 -6 -7 -9 -10 -11 -9 -9 -10 -11 -12 -11 -12 -11 -2 1 2 4 6 7 8 9 11 11 11 11 10 10 10 10 11 10 10 8 9 10 8 8 6 9 -5 -9 -10 -10 -9 -9 2 6 6
-5 -5 -6 -7 -8 -8 -9 -7 -8 -10 -11 -11 -11 -10 -4 1 2 5 6 6 6 9 10 9 11 11 11 9 8 7 10 11 10 10 10 9 9 9 6 9 -2 -7 -8 -7 -3 -1 1 4 6
-3 -3 -3 -6 -7 -8 -8 -5 -8 -9 -10 -10 -10 -10 -3 1 2 5 5 6 6 7 9 10 11 11 10 9 8 8 11 10 11 10 10 9 9 8 8 9 3 -4 -5 5 4 5 6 6 5
-2 0 -1 -3 -6 -6 -7 -6 -8 -9 -9 -7 -9 -7 -4 2 4 5 5 5 7 7 8 8 11 11 11 10 8 8 8 10 10 10 10 9 9 9 7 8 2 -1 1 6 7 6 6 5 5
1 -0 -2 -2 -4 -5 -5 -6 -7 -8 -6 -6 -5 -5 -0 3 3 5 5 5 7 7 8 8 7 11 10 10 10 9 9 9 10 10 9 9 9 8 5 7 4 3 1 6 7 6 4 5 5
-2 -1 -1 -3 -4 -3 -2 -4 -7 -9 -7 -5 -4 -4 0 2 3 5 6 6 7 7 8 8 5 10 11 9 10 10 9 9 10 10 10 9 8 7 7 6 5 7 6 6 7 5 4 5 5
-5 -4 -3 -4 -5 -4 -3 -2 -6 -7 -7 -7 -3 -3 -2 2 4 5 6 6 7 7 8 9 6 7 10 10 10 10 10 9 9 9 9 8 7 7 7 6 8 7 8 7 6 4 4 4 4
-2 -2 -2 -1 -4 -3 -1 1 -3 -6 -7 -7 -7 -3 -3 2 4 6 6 7 7 7 7 8 5 6 9 10 10 10 10 9 9 9 9 8 6 6 4 4 5 8 8 7 6 4 4 4 3
-0 -2 1 4 7 8 5 6 1 -5 -6 -6 -7 -8 -7 -2 4 6 7 7 8 8 7 8 5 7 9 10 9 9 10 9 9 8 7 6 5 4 4 7 6 8 8 5 6 5 3 1 3
1 2 4 6 9 8 7 6 2 -3 -3 -5 -6 -7 -9 -8 4 6 6 6 8 8 7 8 6 7 9 9 10 9 9 10 9 9 8 4 6 4 4 7 6 7 7 7 6 5 1 1 4
4 6 5 6 8 11 8 6 2 -1 -3 -4 -5 -7 -8 -9 2 4 5 6 8 9 8 8 7 8 10 10 9 10 9 9 9 9 9 8 6 5 6 6 6 4 5 5 3 3 2 2 0
5 8 10 10 10 9 3 4 2 -2 -3 -3 -3 -5 -8 -9 1 6 7 7 8 9 9 8 8 7 10 9 10 9 9 9 8 8 8 8 4 3 5 6 5 6 6 5 4 4 4 1 3
5 7 9 9 10 8 1 3 -0 -3 -5 -5 -5 -6 -6 -5 -2 5 6 7 8 8 9 9 8 6 5 10 10 9 9 9 9 8 8 8 5 2 2 5 6 6 6 4 2 3 3 4 6
2 5 4 7 9 10 9 3 -3 -4 -4 -5 -5 -6 -2 -2 1 5 5 6 7 7 7 8 8 6 6 6 10 10 10 9 9 9 8 8 7 2 2 4 5 5 4 4 2 1 0 5 5
-1 1 7 8 9 10 6 8 7 -1 -2 -3 -3 -3 -2 -1 -1 2 5 5 6 6 7 8 8 7 5 5 7 9 8 9 9 9 8 8 8 8 3 4 3 4 5 6 4 2 2 2 5
3 4 7 8 7 11 11 10 7 8 2 1 -0 -1 -2 -1 -1 -1 2 5 5 7 7 8 8 8 7 6 7 7 9 9 9 9 9 9 8 9 9 7 4 2 -0 -0 2 2 2 3 1
1 4 5 9 10 7 10 10 8 8 5 0 -2 -2 -2 -2 -2 -1 1 5 7 7 7 8 8 8 8 6 8 8 8 7 10 10 9 9 9 8 8 8 9 6 2 -1 -1 1 2 3 3
Wind_Speed
7 1 3 6 3 3 5 9 5 3 6 17 16 8 1 3 2 3 8 2 2 4 8 7 8 17 22 23 20 20 20 20 19 18 19 21 22 21 20 19 19 20 21 22 22 22 22 21 20
7 6 6 5 3 1 7 8 2 10 14 12 4 3 4 2 15 14 7 4 5 7 11 6 8 18 22 24 22 20 21 21 20 19 20 22 22 22 21 20 21 22 23 23 24 24 24 24 24
7 6 3 4 3 7 5 6 6 8 13 8 3 5 2 9 12 12 2 5 7 5 10 10 7 18 24 25 22 23 24 19 17 20 22 24 24 22 22 22 24 25 25 25 25 26 26 26 24
6 4 6 1 11 17 15 9 5 5 10 13 7 1 6 9 8 4 0 4 9 8 8 7 7 10 20 21 23 26 18 21 19 16 21 26 25 24 23 24 26 27 25 24 25 26 27 26 29
6 5 3 4 12 15 17 8 7 4 3 12 11 4 8 9 10 8 4 2 4 4 9 8 8 10 15 21 24 19 18 24 24 27 24 27 27 25 25 25 27 27 23 22 25 26 27 32 34
5 5 1 5 14 14 8 12 10 5 4 2 2 3 6 15 8 5 3 6 4 10 11 13 12 11 14 20 18 15 18 17 23 22 24 27 29 28 25 25 27 25 21 22 25 28 31 35 33
7 2 6 8 15 20 15 11 6 5 3 1 5 3 13 14 10 5 8 11 8 10 13 14 12 11 13 18 18 17 17 17 25 23 33 34 32 29 24 24 26 20 18 22 28 30 32 34 31
18 3 8 8 11 18 7 2 13 11 5 3 3 4 8 19 13 7 8 9 8 9 11 15 13 11 11 17 20 19 16 8 14 27 34 41 35 30 29 31 24 20 20 27 29 30 32 37 30
20 5 11 10 15 18 15 2 10 8 7 3 12 16 15 19 12 5 7 9 9 9 4 8 14 9 10 12 13 15 16 15 11 26 27 40 36 32 30 28 22 19 22 28 29 30 35 36 31
12 3 15 11 18 12 17 8 4 4 8 10 18 1 17 14 6 4 6 10 11 8 2 0 14 10 11 11 12 15 14 8 12 20 24 38 37 34 30 25 21 20 25 28 28 31 37 35 33
16 14 13 20 31 24 19 14 13 5 4 10 6 18 14 10 7 5 9 14 11 8 3 2 9 13 10 11 12 14 15 13 12 12 42 40 36 33 28 27 25 26 28 29 30 33 36 35 34
13 22 25 27 34 27 10 21 10 10 8 12 13 12 13 14 11 8 11 13 11 7 5 8 8 12 13 13 11 13 17 21 15 16 37 39 36 33 31 28 29 28 28 29 31 32 36 36 29
15 17 26 30 31 31 31 16 12 21 24 22 16 12 15 13 11 8 13 13 11 10 10 10 11 11 12 14 15 17 17 17 21 32 32 35 32 33 32 29 29 29 28 29 30 33 37 33 26
18 19 22 25 22 28 14 10 13 26 24 23 24 21 18 14 12 11 19 15 14 14 11 13 12 12 10 13 15 19 23 23 27 28 40 42 41 35 37 33 33 31 30 30 30 32 37 25 23
22 14 13 8 16 9 21 9 13 33 27 28 27 29 25 17 14 16 20 18 17 15 13 12 15 12 10 8 10 12 16 25 31 33 41 43 38 36 35 35 33 33 32 32 30 29 26 24 19
6 6 8 11 11 16 11 14 15 31 29 29 33 32 25 20 17 18 15 15 17 17 14 13 16 16 10 9 10 8 15 16 32 38 45 47 40 39 37 36 34 34 34 32 30 27 24 23 21
3 6 15 11 9 13 10 19 19 35 29 9 16 16 17 18 18 18 17 17 17 17 15 12 18 17 14 14 16 9 9 13 35 35 42 40 39 40 37 37 35 35 37 30 30 28 29 24 24
6 9 10 14 19 17 14 21 15 24 14 17 18 21 26 26 25 23 21 20 19 19 16 12 14 20 19 17 16 14 11 17 25 34 42 39 42 39 37 36 34 32 35 29 32 25 27 24 23
13 16 17 15 17 17 17 10 14 12 13 14 24 23 30 30 29 28 26 23 21 20 20 15 14 21 21 20 20 20 18 19 24 31 35 44 42 39 38 36 38 35 34 34 31 27 28 27 25
10 17 20 18 23 17 19 16 10 8 8 18 26 29 29 35 33 33 31 29 26 23 22 16 14 17 21 22 23 23 25 24 25 29 38 39 40 38 41 39 37 36 35 32 32 31 31 29 26
14 17 18 20 27 20 20 11 18 7 7 19 19 37 35 39 38 39 36 33 29 26 24 20 15 17 19 24 22 20 26 27 34 35 40 44 44 44 43 44 36 32 40 36 33 34 34 33 30
16 13 16 20 19 8 10 15 20 8 14 16 24 24 28 31 42 43 39 35 32 27 24 21 16 18 19 24 25 25 28 32 36 38 37 41 40 39 40 32 34 29 33 36 37 34 36 32 34
11 7 12 12 15 13 20 11 15 12 7 16 19 29 30 25 42 45 42 35 33 27 24 22 18 20 24 27 29 29 26 27 32 37 39 40 42 42 40 39 37 36 37 37 38 36 36 33 34
6 9 8 10 8 6 19 13 9 12 13 11 7 23 36 31 41 44 42 36 31 25 23 24 22 22 26 30 31 28 29 28 32 38 41 41 45 44 39 38 39 38 38 38 37 37 37 35 33
3 9 3 5 5 7 11 12 15 8 15 15 14 19 34 35 35 43 43 37 32 29 25 25 25 24 28 30 33 34 32 30 32 35 37 42 47 48 44 40 42 40 38 41 38 39 38 36 35
5 3 3 4 3 2 12 8 9 14 22 9 11 12 10 26 34 45 43 37 33 29 27 26 27 27 28 32 33 35 34 33 35 35 35 42 50 51 49 43 46 43 43 40 37 37 39 36 36
3 7 6 6 3 2 4 8 9 12 20 10 8 9 10 25 32 39 38 37 34 30 29 28 28 28 28 30 34 35 36 34 34 33 34 37 45 50 50 50 49 48 47 43 39 38 38 38 40
11 1 2 3 3 3 4 5 4 2 6 7 7 6 16 24 28 32 36 36 34 33 30 30 27 27 28 30 33 36 35 34 35 34 35 37 39 45 52 51 54 51 48 45 43 43 41 43 43
6 9 4 4 4 2 1 4 14 19 12 14 11 22 28 25 14 11 14 34 36 35 32 31 30 27 28 29 30 32 36 36 36 37 35 35 34 39 46 50 57 59 60 55 52 50 51 49 50
13 13 13 2 2 4 2 4 15 15 15 14 10 20 25 23 29 28 22 16 33 34 32 31 31 29 26 29 30 31 29 35 39 40 39 36 37 38 39 43 52 58 64 61 62 58 55 55 55
Wind_Direction
250 207 307 303 37 88 261 260 235 122 70 69 69 64 271 8 57 178 170 172 337 323 309 286 224 202 197 195 192 189 188 189 191 184 180 173 169 168 166 164 162 159 154 151 153 155 155 151 144
219 197 287 275 126 291 278 265 176 105 103 78 71 139 239 108 106 141 173 328 324 301 299 290 227 210 203 202 197 197 195 197 198 192 181 176 170 168 166 162 155 151 150 149 146 149 149 143 140
210 220 255 163 210 223 242 352 104 122 117 113 62 317 250 118 125 153 160 326 333 292 288 275 223 217 214 208 204 198 190 193 204 200 188 180 172 168 165 158 152 150 149 146 143 144 143 139 133
178 210 251 168 255 259 241 269 137 110 132 139 166 253 89 130 144 130 235 303 325 310 291 249 228 231 229 225 219 217 216 195 188 197 199 183 174 168 159 154 155 151 151 154 143 141 142 136 129
202 261 218 238 255 265 277 232 116 99 75 158 154 212 136 142 171 180 193 292 301 269 278 256 234 231 228 227 232 216 214 228 236 240 209 189 172 167 161 160 157 155 162 156 146 145 139 138 134
224 212 302 249 269 272 288 168 123 103 108 70 353 284 111 157 173 204 229 295 237 210 234 255 247 237 231 225 226 235 238 231 224 220 223 200 176 168 164 163 162 165 170 161 156 148 142 142 140
210 7 243 266 279 296 296 165 119 117 100 355 68 23 138 159 191 224 291 298 295 225 224 243 234 244 238 220 224 243 237 245 238 205 223 198 180 165 164 172 171 172 168 161 157 152 148 149 143
229 161 274 267 280 284 304 117 148 164 175 137 306 179 170 184 197 229 285 291 309 311 216 230 235 231 228 227 233 233 228 191 266 240 196 185 180 173 170 176 181 176 165 162 159 156 152 153 143
247 227 247 249 261 271 305 193 178 149 137 242 259 246 227 184 190 244 285 292 297 323 284 225 214 225 238 227 215 215 217 221 251 203 214 180 175 173 173 175 177 173 165 163 161 158 154 151 145
222 201 240 245 257 273 319 343 147 154 194 227 238 251 166 172 198 235 277 278 275 311 358 355 200 211 215 221 207 210 212 225 152 187 183 175 175 175 174 174 172 174 164 162 161 157 153 153 145
244 240 255 258 267 284 283 301 296 230 227 220 160 164 188 197 215 212 232 262 258 290 246 215 190 207 219 216 214 203 202 180 183 118 163 177 175 172 173 173 170 170 167 161 159 156 156 156 147
240 244 247 253 264 270 281 287 288 285 274 320 275 190 178 196 206 213 217 235 239 262 239 206 194 214 226 223 206 199 186 186 152 209 173 173 173 170 171 172 169 168 167 163 161 161 159 155 153
240 248 255 257 258 262 276 273 256 268 279 289 287 258 217 201 208 224 214 216 234 234 211 217 210 212 210 213 210 210 211 201 164 162 177 172 177 176 174 175 171 167 167 166 164 161 158 153 157
248 253 260 265 267 261 263 263 278 266 263 265 269 269 218 212 215 218 200 212 237 237 227 227 211 219 225 211 214 215 214 215 199 191 196 185 184 183 172 176 171 169 167 167 167 160 159 153 156
272 273 277 275 267 276 264 275 258 268 265 252 246 257 220 211 209 212 210 217 233 234 237 230 212 215 209 213 209 199 192 212 203 188 177 182 180 180 175 176 173 169 165 166 166 163 164 168 163
299 306 274 264 271 274 257 262 255 258 265 252 245 242 214 199 208 201 204 217 221 233 233 222 202 201 207 194 174 139 174 186 197 195 185 183 183 176 175 178 177 171 167 163 167 163 170 174 174
297 259 270 280 252 244 222 254 251 251 251 231 200 202 213 189 191 193 200 211 219 237 240 223 198 204 190 179 187 154 165 186 190 203 185 181 185 178 179 180 179 175 169 168 164 177 181 177 169
241 262 264 256 266 264 249 251 257 233 220 195 202 217 194 188 194 199 202 213 222 236 241 235 196 195 191 185 186 190 175 177 191 191 185 190 186 182 183 179 182 174 177 174 176 184 175 174 175
266 273 271 281 283 293 282 274 223 221 233 229 207 215 198 197 201 199 198 201 209 223 234 233 207 186 191 196 189 191 187 183 184 198 200 180 175 176 179 182 182 181 182 182 182 183 175 181 184
291 290 281 288 282 289 290 265 252 221 219 228 210 211 209 200 194 190 189 193 209 217 232 231 218 200 190 198 189 191 184 182 185 177 176 179 175 175 184 187 185 187 189 189 186 181 182 185 181
256 269 279 293 285 294 305 289 287 248 257 271 253 214 215 201 192 185 187 192 202 212 227 230 218 195 197 190 191 185 185 185 184 183 186 184 184 185 188 193 192 190 188 185 187 190 191 187 189
249 255 300 307 334 277 317 291 276 254 246 247 250 250 217 203 190 189 189 192 203 212 221 227 222 194 196 189 183 187 191 189 192 192 188 188 191 190 185 190 196 201 201 203 204 203 201 199 194
255 300 290 320 300 301 275 268 268 252 253 232 234 233 221 204 186 188 194 202 207 206 215 221 218 201 199 198 197 195 197 202 199 199 196 190 188 192 195 201 203 206 204 202 207 210 207 207 207
358 284 290 320 281 246 254 240 249 246 254 270 252 213 214 209 188 195 195 199 200 204 208 215 212 206 198 198 202 201 202 207 204 204 204 205 201 199 205 206 211 210 212 213 212 213 215 213 223
311 275 174 206 205 232 200 235 240 238 240 244 283 199 206 207 182 184 187 193 195 203 207 214 215 211 202 200 203 206 209 212 208 207 210 204 200 201 205 206 208 216 214 212 214 218 220 223 218
186 195 215 216 204 286 228 236 233 218 244 214 139 110 108 196 178 181 187 191 200 206 212 215 219 215 211 204 204 206 211 210 212 214 217 213 209 206 208 214 215 215 215 215 223 224 228 225 217
208 221 213 296 359 270 254 281 282 259 236 188 140 119 104 182 167 175 186 194 200 209 220 221 221 219 217 211 207 208 207 213 214 216 218 225 220 216 217 221 220 220 223 224 222 227 228 227 227
206 160 185 151 262 214 248 277 292 307 160 136 122 97 149 155 174 181 189 196 206 218 218 220 229 229 224 219 213 215 213 219 224 225 224 225 228 226 225 225 225 226 226 226 229 232 232 232 230
210 234 199 227 228 275 280 257 8 354 354 82 71 73 60 55 110 130 189 203 208 213 217 218 220 229 226 229 220 221 216 215 220 225 227 228 227 228 229 231 230 230 234 234 235 235 237 238 239
183 231 205 252 190 200 315 272 350 350 320 8 74 67 70 53 52 56 50 199 203 209 216 222 221 226 234 233 234 230 229 223 220 227 229 229 231 230 233 234 234 235 236 238 239 238 238 238 238
Height
1502 1504 1504 1504 1514 1509 1510 1491 1473 1467 1470 1470 1471 1474 1479 1480 1484 1500 1492 1491 1490 1492 1492 1493 1493 1494 1495 1497 1500 1503 1506 1510 1513 1515 1517 1518 1520 1522 1525 1527 1529 1530 1532 1535 1538 1542 1545 1547 1549
1501 1503 1503 1502 1515 1522 1505 1469 1473 1467 1467 1470 1473 1475 1478 1483 1482 1486 1488 1489 1489 1489 1490 1492 1492 1493 1494 1495 1498 1502 1505 1509 1512 1515 1517 1518 1519 1521 1524 1526 1529 1531 1533 1536 1537 1542 1546 1548 1552
1500 1502 1503 1504 1509 1509 1502 1471 1466 1463 1463 1467 1472 1475 1476 1481 1482 1482 1485 1486 1487 1485 1487 1488 1490 1491 1492 1493 1497 1499 1501 1508 1513 1515 1516 1518 1519 1521 1522 1525 1528 1531 1534 1537 1539 1542 1547 1550 1553
1500 1502 1502 1505 1505 1483 1478 1471 1461 1461 1463 1466 1470 1475 1477 1478 1479 1482 1483 1484 1484 1485 1486 1486 1488 1490 1492 1495 1497 1499 1501 1503 1508 1506 1516 1516 1518 1520 1523 1524 1528 1531 1534 1537 1540 1543 1548 1550 1553
1499 1499 1506 1505 1494 1475 1467 1467 1459 1461 1461 1465 1470 1472 1474 1476 1477 1479 1481 1483 1482 1483 1484 1485 1487 1488 1490 1492 1492 1495 1497 1504 1504 1511 1514 1517 1515 1521 1523 1526 1529 1530 1533 1538 1541 1544 1548 1551 1553
1497 1493 1507 1510 1489 1473 1465 1457 1456 1458 1461 1464 1467 1469 1474 1475 1477 1478 1479 1480 1481 1482 1482 1483 1485 1486 1488 1488 1491 1492 1495 1498 1503 1507 1507 1516 1516 1519 1522 1527 1530 1531 1534 1538 1541 1544 1550 1553 1554
1494 1497 1502 1499 1488 1473 1461 1457 1456 1458 1459 1463 1466 1469 1475 1475 1475 1475 1476 1477 1479 1481 1480 1480 1482 1484 1485 1487 1488 1490 1491 1492 1492 1497 1503 1513 1517 1517 1521 1527 1530 1532 1534 1538 1542 1545 1550 1554 1556
1488 1493 1496 1490 1489 1477 1460 1455 1454 1455 1460 1462 1465 1468 1475 1471 1470 1472 1473 1474 1475 1477 1478 1478 1479 1481 1482 1484 1486 1487 1488 1490 1489 1493 1495 1503 1515 1516 1519 1525 1529 1532 1534 1539 1542 1546 1549 1554 1557
1486 1494 1493 1488 1482 1467 1464 1459 1456 1456 1458 1460 1463 1462 1463 1465 1468 1469 1470 1472 1472 1474 1475 1476 1478 1479 1479 1480 1482 1484 1486 1488 1485 1490 1492 1506 1510 1515 1520 1525 1528 1532 1534 1538 1543 1546 1550 1555 1558
1481 1489 1477 1473 1466 1467 1462 1459 1456 1457 1456 1458 1458 1460 1461 1463 1465 1466 1468 1469 1469 1471 1473 1474 1476 1478 1478 1478 1480 1481 1483 1485 1485 1488 1484 1503 1509 1514 1520 1524 1526 1532 1535 1539 1544 1547 1550 1555 1559
1476 1478 1471 1467 1461 1464 1462 1457 1454 1456 1456 1454 1457 1459 1460 1461 1462 1464 1465 1466 1467 1469 1471 1473 1474 1476 1477 1478 1479 1481 1482 1483 1483 1486 1484 1502 1508 1514 1519 1523 1524 1530 1536 1538 1542 1545 1550 1555 1559
1473 1466 1466 1464 1459 1459 1458 1456 1453 1452 1454 1454 1453 1454 1456 1457 1458 1461 1463 1463 1464 1466 1468 1470 1473 1475 1476 1477 1478 1480 1480 1482 1484 1484 1492 1502 1508 1513 1515 1519 1523 1529 1535 1538 1541 1545 1550 1555 1559
1463 1460 1458 1457 1455 1453 1452 1451 1449 1447 1448 1450 1453 1453 1453 1454 1455 1458 1460 1460 1460 1463 1466 1467 1470 1471 1474 1474 1477 1478 1480 1481 1483 1486 1492 1499 1506 1511 1513 1519 1523 1528 1534 1538 1540 1545 1550 1554 1559
1456 1454 1452 1451 1450 1448 1448 1445 1446 1442 1446 1447 1448 1448 1449 1450 1453 1456 1456 1457 1458 1460 1462 1465 1467 1469 1470 1472 1474 1476 1476 1478 1482 1486 1489 1494 1501 1509 1511 1517 1521 1527 1532 1537 1541 1544 1549 1554 1558
1452 1454 1448 1446 1444 1444 1443 1443 1441 1438 1441 1439 1441 1442 1443 1445 1447 1451 1453 1454 1455 1458 1459 1461 1464 1466 1468 1469 1470 1472 1473 1473 1478 1482 1488 1493 1500 1506 1511 1515 1521 1526 1532 1536 1542 1544 1549 1553 1557
1453 1452 1457 1443 1441 1438 1444 1446 1435 1432 1434 1432 1432 1435 1438 1440 1443 1447 1450 1451 1454 1455 1457 1458 1460 1463 1465 1467 1469 1470 1472 1474 1476 1481 1486 1492 1497 1504 1510 1516 1520 1526 1531 1536 1539 1543 1547 1552 1555
1455 1465 1455 1445 1437 1437 1438 1438 1428 1425 1426 1426 1423 1430 1433 1437 1441 1444 1447 1449 1451 1453 1454 1455 1458 1460 1462 1466 1468 1469 1471 1472 1475 1479 1484 1492 1497 1504 1508 1514 1519 1524 1532 1535 1538 1543 1546 1550 1554
1465 1459 1454 1447 1436 1432 1432 1430 1422 1419 1420 1419 1421 1424 1427 1429 1432 1437 1441 1445 1447 1450 1452 1453 1454 1458 1460 1463 1466 1468 1471 1473 1476 1479 1484 1490 1496 1502 1508 1515 1519 1524 1530 1534 1538 1541 1545 1549 1553
1451 1452 1449 1439 1430 1434 1424 1423 1414 1410 1413 1416 1416 1418 1420 1422 1426 1430 1435 1440 1441 1446 1448 1450 1451 1454 1457 1461 1464 1466 1469 1472 1475 1480 1483 1488 1494 1500 1507 1512 1515 1521 1527 1530 1535 1538 1542 1548 1552
1451 1454 1446 1435 1428 1432 1427 1417 1412 1407 1407 1408 1410 1411 1413 1416 1421 1425 1430 1433 1436 1440 1444 1447 1449 1451 1455 1458 1461 1465 1469 1473 1477 1480 1484 1489 1494 1499 1506 1509 1512 1517 1524 1529 1532 1535 1540 1545 1549
1449 1451 1448 1449 1430 1421 1430 1426 1415 1403 1401 1401 1402 1403 1406 1408 1414 1420 1424 1427 1431 1434 1439 1443 1446 1448 1451 1455 1459 1463 1468 1472 1476 1480 1484 1489 1493 1497 1503 1507 1512 1515 1520 1525 1529 1533 1536 1540 1546
1451 1450 1452 1458 1460 1456 1444 1444 1416 1403 1399 1396 1395 1396 1398 1401 1406 1412 1418 1423 1425 1430 1435 1440 1442 1445 1449 1451 1456 1460 1463 1468 1471 1476 1481 1486 1491 1496 1501 1505 1510 1514 1518 1522 1526 1530 1533 1537 1540
1449 1452 1454 1461 1464 1455 1438 1443 1414 1401 1398 1392 1387 1388 1390 1393 1399 1405 1411 1415 1421 1425 1430 1436 1440 1442 1446 1449 1452 1457 1462 1467 1471 1474 1480 1485 1489 1493 1498 1503 1507 1512 1516 1520 1523 1526 1529 1531 1535
1451 1454 1451 1458 1464 1457 1438 1439 1414 1399 1391 1384 1378 1377 1380 1386 1391 1397 1405 1411 1417 1421 1426 1431 1436 1438 1443 1446 1449 1453 1457 1462 1466 1471 1475 1480 1485 1490 1494 1499 1502 1507 1511 1515 1519 1523 1526 1528 1532
1456 1456 1454 1457 1456 1448 1416 1423 1404 1383 1378 1376 1374 1371 1374 1380 1386 1393 1400 1407 1413 1416 1421 1426 1431 1435 1438 1442 1445 1449 1454 1458 1462 1467 1471 1476 1479 1484 1489 1494 1497 1501 1506 1511 1516 1519 1522 1524 1526
1447 1453 1446 1442 1442 1429 1405 1402 1390 1374 1370 1372 1368 1368 1371 1376 1381 1388 1395 1402 1407 1410 1415 1422 1427 1432 1435 1438 1442 1446 1450 1454 1458 1463 1467 1471 1475 1479 1484 1489 1493 1497 1502 1506 1511 1515 1518 1520 1522
1435 1444 1441 1444 1444 1440 1419 1391 1374 1368 1363 1369 1367 1368 1370 1375 1380 1387 1393 1397 1402 1406 1409 1415 1422 1427 1431 1434 1438 1441 1446 1449 1452 1457 1462 1466 1470 1475 1480 1484 1487 1492 1496 1500 1504 1508 1511 1513 1517
1426 1429 1439 1450 1443 1437 1409 1405 1397 1372 1366 1364 1368 1371 1374 1378 1381 1385 1390 1395 1398 1400 1405 1411 1416 1421 1426 1430 1434 1437 1442 1446 1450 1454 1457 1460 1464 1469 1473 1478 1482 1486 1489 1493 1498 1500 1504 1507 1509
1430 1432 1445 1442 1437 1428 1425 1411 1407 1398 1379 1371 1376 1376 1380 1381 1383 1388 1389 1391 1394 1398 1402 1407 1413 1417 1422 1425 1430 1433 1436 1441 1445 1448 1452 1455 1459 1462 1466 1469 1473 1476 1479 1483 1488 1491 1495 1497 1501
1414 1425 1434 1438 1429 1424 1425 1420 1408 1402 1396 1384 1377 1381 1381 1384 1386 1389 1390 1390 1394 1397 1401 1404 1409 1412 1416 1420 1425 1429 1433 1435 1437 1439 1442 1448 1450 1454 1457 1461 1463 1466 1469 1473 1476 1479 1483 1486 1489